Change the Weather History Date:

Sunday, January 26, 2014

  Actual Average Record
Temperature  
Mean Temperature 20 °F -  
Max Temperature 23 °F 37 °F 65 °F (1950)
Min Temperature 16 °F 19 °F -8 °F (1948)
Degree Days  
Heating Degree Days 46    
Moisture  
Dew Point 5 °F    
Average Humidity 53    
Maximum Humidity 72    
Minimum Humidity 37    
Precipitation  
Precipitation 0.00 in - - ()
Sea Level Pressure  
Sea Level Pressure 29.75 in    
Wind  
Wind Speed 9 mph (WSW)    
Max Wind Speed 17 mph    
Max Gust Speed 30 mph    
Visibility 10 miles    
Events Snow    
Averages and records for this station are not official NWS values.
T = Trace of Precipitation, MM = Missing Value Source: NWS Daily Summary

Daily Weather History Graph

Daily Weather History Graph

Search for Another Location

Airport or City:

Trip Planner

Search our weather history database for the weather conditions in past years. The results will help you decide how hot, cold, wet, or windy it might be!

Date:

Astronomy

Jan. 26, 2014 Rise Set
Actual Time 7:08 AM EST 4:58 PM EST
Civil Twilight 6:38 AM EST 5:28 PM EST
Nautical Twilight 6:04 AM EST 6:02 PM EST
Astronomical Twilight 5:31 AM EST 6:34 PM EST
Moon 2:42 AM EST (1/26) 12:44 PM EST (1/26)
Length of Visible Light 10h 49m
Length of Day
9h 50m
Waning Crescent, 24% of the Moon is Illuminated
Jan 26
Waning Crescent
Jan 30
New
Feb 6
First Quarter
Feb 14
Full
Feb 22
Last Quarter

Hourly Weather History & Observations

Time (EST) Temp. Windchill Dew Point Humidity Pressure Visibility Wind Dir Wind Speed Gust Speed Precip Events Conditions
12:53 AM 23.0 °F 14.7 °F 15.1 °F 72% 29.42 in 10.0 mi SW 6.9 mph - N/A   Clear
1:53 AM 23.0 °F 15.8 °F 15.1 °F 72% 29.47 in 10.0 mi West 5.8 mph - N/A   Mostly Cloudy
2:28 AM 21.9 °F 14.5 °F 14.0 °F 72% 29.50 in 6.0 mi West 5.8 mph - 0.00 in Snow Light Snow
2:43 AM 21.9 °F 14.5 °F 14.0 °F 72% 29.51 in 10.0 mi West 5.8 mph - 0.00 in   Scattered Clouds
2:53 AM 21.9 °F 8.2 °F 12.9 °F 68% 29.52 in 10.0 mi WNW 16.1 mph 24.2 mph 0.00 in   Partly Cloudy
3:53 AM 21.0 °F 7.6 °F 3.9 °F 48% 29.58 in 10.0 mi NW 15.0 mph 21.9 mph N/A   Clear
4:53 AM 19.9 °F 5.2 °F 3.9 °F 50% 29.64 in 10.0 mi WNW 17.3 mph 29.9 mph N/A   Overcast
5:53 AM 18.0 °F 3.1 °F -4.0 °F 38% 29.68 in 10.0 mi NW 16.1 mph 27.6 mph 0.00 in   Clear
6:53 AM 16.0 °F 3.6 °F -4.0 °F 41% 29.72 in 10.0 mi WNW 10.4 mph 19.6 mph N/A   Clear
7:53 AM 16.0 °F 3.6 °F -5.1 °F 39% 29.77 in 10.0 mi WNW 10.4 mph - N/A   Clear
8:53 AM 17.1 °F 3.6 °F -2.0 °F 43% 29.82 in 10.0 mi West 12.7 mph 18.4 mph N/A   Clear
9:53 AM 18.0 °F 6.1 °F -2.0 °F 41% 29.85 in 10.0 mi West 10.4 mph 20.7 mph N/A   Overcast
10:53 AM 19.0 °F 11.1 °F -2.0 °F 40% 29.86 in 10.0 mi Variable 5.8 mph 17.3 mph N/A   Mostly Cloudy
11:53 AM 19.9 °F 11.1 °F -2.9 °F 37% 29.85 in 10.0 mi Variable 6.9 mph - N/A   Mostly Cloudy
12:53 PM 19.9 °F 7.9 °F -2.9 °F 37% 29.82 in 10.0 mi West 11.5 mph 18.4 mph N/A   Clear
1:53 PM 19.9 °F 7.9 °F -2.9 °F 37% 29.82 in 10.0 mi WSW 11.5 mph 16.1 mph N/A   Scattered Clouds
2:53 PM 19.9 °F 11.1 °F -0.9 °F 40% 29.84 in 10.0 mi SW 6.9 mph - N/A   Overcast
3:53 PM 21.0 °F 9.9 °F -0.0 °F 40% 29.86 in 10.0 mi SW 10.4 mph - N/A   Overcast
4:53 PM 21.0 °F 12.4 °F 1.9 °F 44% 29.86 in 10.0 mi SSW 6.9 mph - N/A   Clear
5:53 PM 19.9 °F 10.1 °F 6.1 °F 55% 29.86 in 10.0 mi South 8.1 mph 17.3 mph N/A   Overcast
6:53 PM 19.9 °F 11.1 °F 7.0 °F 57% 29.88 in 10.0 mi SSW 6.9 mph - N/A   Overcast
7:53 PM 19.9 °F 12.1 °F 9.0 °F 62% 29.88 in 10.0 mi South 5.8 mph - N/A   Overcast
8:53 PM 19.9 °F 11.1 °F 10.9 °F 68% 29.87 in 10.0 mi South 6.9 mph - N/A   Overcast
9:53 PM 21.0 °F 13.4 °F 12.9 °F 71% 29.86 in 10.0 mi South 5.8 mph - N/A   Overcast
10:53 PM 21.9 °F 17.2 °F 14.0 °F 72% 29.85 in 10.0 mi Variable 3.5 mph - N/A   Overcast
11:53 PM 23.0 °F 18.4 °F 14.0 °F 68% 29.83 in 10.0 mi South 3.5 mph - N/A   Overcast